Location: Unspecified
(0.0000°N, 0.0000°E)
Time: 17:59:42
(UTC+00:00)

Vanguard 1 - Pass Details

Date: 14 December 2025
Orbit: 651 x 3820 km, 34.2° (Epoch: 14 January)

Event Time Altitude Azimuth Distance (km) Brightness Sun altitude
Rises 05:15:09 0° 233° (SW) 4,184 13.0 -9.1°
Reaches altitude 10° 05:18:32 10° 232° (SW) 2,833 12.2 -8.3°
Maximum altitude 05:24:45 86° 145° (SE) 756 9.6 -6.9°
Drops below altitude 10° 05:29:13 10° 55° (NE) 2,059 12.2 -5.8°
Sets 05:31:20 0° 55° (NE) 2,947 13.0 -5.4°
